Eindhoven, Netherlands

1:37 AM CEST on March 27, 2017 (GMT +0200)
Eindhoven Air Base

Weather History for EHEH - February, 2013

Change the Weather History Date:

Thursday, February 14, 2013

  Actual Average Record
Temperature  
Mean Temperature 30 °F -  
Max Temperature 33 °F 46 °F 60 °F (1998)
Min Temperature 26 °F 33 °F 15 °F (1999)
Degree Days  
Heating Degree Days 36    
Moisture  
Dew Point 26 °F    
Average Humidity 81    
Maximum Humidity 100    
Minimum Humidity 56    
Precipitation  
Precipitation 0.16 in - - ()
Sea Level Pressure  
Sea Level Pressure 30.02 in    
Wind  
Wind Speed 9 mph ()    
Max Wind Speed 16 mph    
Max Gust Speed -    
Visibility 3.7 miles    
Events Rain , Snow    
Averages and records for this station are not official NWS values.
T = Trace of Precipitation, MM = Missing Value Source: Averaged Metar Reports

Daily Weather History Graph

Daily Weather History Graph

Search for Another Location

Airport or City:

Trip Planner

Search our weather history database for the weather conditions in past years. The results will help you decide how hot, cold, wet, or windy it might be!

Date:

Astronomy

Feb. 14, 2013 Rise Set
Actual Time 7:53 AM CET 5:51 PM CET
Civil Twilight 7:19 AM CET 6:26 PM CET
Nautical Twilight 6:40 AM CET 7:05 PM CET
Astronomical Twilight 6:01 AM CET 7:44 PM CET
Moon 9:10 AM CET (2/14) 11:20 PM CET (2/14)
Length of Visible Light 11h 07m
Length of Day
9h 58m
Waxing Crescent, 19% of the Moon is Illuminated
Feb 14
Waxing Crescent
Feb 17
First Quarter
Feb 25
Full
Mar 4
Last Quarter
Mar 11
New

Hourly Weather History & Observations

Time (CET) Temp. Windchill Dew Point Humidity Pressure Visibility Wind Dir Wind Speed Gust Speed Precip Events Conditions
12:25 AM 26.6 °F 19.1 °F 21.2 °F 80% 30.24 in 4.3 mi SSE 6.9 mph - N/A   Mist
12:42 AM 28.4 °F 21.2 °F 21.2 °F 74% 30.24 in 5.0 mi SSE 6.9 mph - N/A   Scattered Clouds
12:45 AM 28.4 °F 21.2 °F 21.2 °F 74% 30.24 in 4.3 mi SSE 6.9 mph - N/A   Partly Cloudy
12:47 AM 28.4 °F 21.2 °F 21.2 °F 74% 30.24 in 5.0 mi SSE 6.9 mph - N/A   Haze
12:55 AM 28.4 °F 21.2 °F 21.2 °F 74% 30.24 in 5.0 mi SSE 6.9 mph - N/A   Haze
1:00 AM 27 °F - 21 °F 68% 30.27 in 5 mi SSE 6.7 mph - -   Light Haze
1:06 AM 26.6 °F 20.0 °F 21.2 °F 80% 30.24 in 5.0 mi SSE 5.8 mph - N/A   Haze
1:25 AM 28.4 °F 21.2 °F 21.2 °F 74% 30.24 in 5.0 mi SSE 6.9 mph - N/A   Haze
1:55 AM 26.6 °F 18.2 °F 21.2 °F 80% 30.24 in 5.6 mi SSE 8.1 mph - N/A   Haze
2:25 AM 28.4 °F 19.7 °F 21.2 °F 74% 30.21 in 5.6 mi SSE 9.2 mph - N/A   Haze
2:55 AM 28.4 °F 20.4 °F 19.4 °F 69% 30.21 in 6.2 mi SSE 8.1 mph - N/A   Mostly Cloudy
3:25 AM 28.4 °F 20.4 °F 19.4 °F 69% 30.21 in 6.2 mi SSE 8.1 mph - N/A   Scattered Clouds
3:55 AM 28.4 °F 20.4 °F 19.4 °F 69% 30.18 in 6.2 mi SSE 8.1 mph - N/A   Scattered Clouds
4:00 AM 28 °F - 20 °F 61% 30.21 in 7 mi SSE 8.9 mph - -   Scattered Clouds
4:25 AM 28.4 °F 20.4 °F 19.4 °F 69% 30.18 in 6.2 mi SSE 8.1 mph - N/A   Mostly Cloudy
4:55 AM 26.6 °F 18.2 °F 19.4 °F 74% 30.15 in 6.2 mi SSE 8.1 mph - N/A   Unknown
5:25 AM 26.6 °F 17.5 °F 19.4 °F 74% 30.15 in 6.2 mi SSE 9.2 mph - N/A   Mostly Cloudy
5:55 AM 28.4 °F 19.7 °F 19.4 °F 69% 30.15 in 6.2 mi SSE 9.2 mph - N/A   Mostly Cloudy
6:25 AM 28.4 °F 19.7 °F 19.4 °F 69% 30.12 in 6.2 mi SSE 9.2 mph - N/A   Overcast
6:33 AM 28.4 °F 19.7 °F 19.4 °F 69% 30.12 in 6.2 mi SSE 9.2 mph - N/A   Overcast
6:55 AM 28.4 °F 19.1 °F 19.4 °F 69% 30.12 in 6.2 mi SE 10.4 mph - N/A   Mostly Cloudy
7:00 AM 28 °F - 20 °F 61% 30.13 in 7 mi SE 11.2 mph - -   Partly Cloudy
7:25 AM 28.4 °F 18.5 °F 19.4 °F 69% 30.09 in 6.2 mi SSE 11.5 mph - N/A   Mostly Cloudy
7:55 AM 28.4 °F 18.5 °F 21.2 °F 74% 30.09 in 6.2 mi SSE 11.5 mph - N/A   Mostly Cloudy
8:25 AM 28.4 °F 17.5 °F 21.2 °F 74% 30.06 in 6.2 mi SSE 13.8 mph - N/A   Mostly Cloudy
8:55 AM 28.4 °F 17.5 °F 21.2 °F 74% 30.06 in 6.2 mi SSE 13.8 mph - N/A   Scattered Clouds
9:25 AM 30.2 °F 19.8 °F 21.2 °F 69% 30.06 in 6.2 mi SSE 13.8 mph - N/A   Mostly Cloudy
9:55 AM 30.2 °F 19.3 °F 21.2 °F 69% 30.04 in 6.2 mi SSE 15.0 mph - N/A   Mostly Cloudy
10:00 AM 30 °F - 21 °F 58% 30.06 in 6 mi SSE 13.4 mph - -   Mostly Cloudy
10:25 AM 30.2 °F 20.2 °F 21.2 °F 69% 30.04 in 6.2 mi SSE 12.7 mph - N/A   Overcast
10:55 AM 32.0 °F 22.5 °F 21.2 °F 64% 30.01 in 6.2 mi SSE 12.7 mph - N/A   Mostly Cloudy
11:25 AM 32.0 °F 21.2 °F 19.4 °F 60% 30.01 in 6.2 mi South 16.1 mph - N/A   Overcast
11:55 AM 33.8 °F 24.3 °F 21.2 °F 60% 30.01 in 6.2 mi South 13.8 mph - N/A   Overcast
12:07 PM 33.8 °F 23.9 °F 19.4 °F 56% 30.01 in 6.2 mi South 15.0 mph - N/A   Overcast
12:08 PM 33.8 °F 23.9 °F 21.2 °F 60% 30.01 in 6.2 mi South 15.0 mph - N/A   Overcast
12:11 PM 33.8 °F 23.9 °F 21.2 °F 60% 30.01 in 6.2 mi South 15.0 mph - N/A   Overcast
12:18 PM 33.8 °F 24.3 °F 21.2 °F 60% 30.01 in 3.7 mi South 13.8 mph - N/A   Overcast
12:25 PM 33.8 °F 23.9 °F 21.2 °F 60% 30.01 in 5.0 mi South 15.0 mph - N/A Snow Light Snow
12:27 PM 32.0 °F 21.2 °F 21.2 °F 64% 30.01 in 2.8 mi South 16.1 mph - N/A Snow Light Snow
12:30 PM 32.0 °F 21.2 °F 21.2 °F 64% 30.01 in 2.8 mi South 16.1 mph - N/A Snow Light Snow
12:33 PM 32.0 °F 21.6 °F 23.0 °F 69% 29.98 in 3.7 mi South 15.0 mph - N/A Snow Light Snow
12:40 PM 32.0 °F 21.2 °F 23.0 °F 69% 29.98 in 2.8 mi South 16.1 mph - N/A Snow Light Snow
12:47 PM 32.0 °F 21.6 °F 24.8 °F 75% 29.98 in 1.9 mi South 15.0 mph - N/A Snow Light Snow
12:55 PM 32.0 °F 21.6 °F 24.8 °F 75% 29.98 in 1.6 mi South 15.0 mph - N/A Snow Light Snow
1:00 PM 31 °F - 26 °F 72% 29.99 in 1 mi SSE 13.4 mph - - Snow Snow Showers
1:03 PM 32.0 °F 22.1 °F 24.8 °F 75% 29.98 in 1.7 mi SSE 13.8 mph - N/A Snow Light Snow
1:09 PM 32.0 °F 22.1 °F 24.8 °F 75% 29.98 in - SSE 13.8 mph - N/A Snow Light Snow
1:25 PM 32.0 °F 21.6 °F 24.8 °F 75% 29.98 in - SSE 15.0 mph - N/A Snow Light Snow
1:55 PM 32.0 °F 23.0 °F 26.6 °F 80% 29.95 in 3.1 mi SSE 11.5 mph - N/A Snow Snow
2:25 PM 32.0 °F 23.0 °F 28.4 °F 87% 29.95 in 4.3 mi SSE 11.5 mph - N/A   Overcast
2:55 PM 32.0 °F 23.0 °F 28.4 °F 87% 29.92 in 3.1 mi SSE 11.5 mph - N/A Rain Light Freezing Rain
3:25 PM 32.0 °F 22.5 °F 28.4 °F 87% 29.92 in - SSE 12.7 mph - N/A Snow Light Snow
3:55 PM 32.0 °F 22.5 °F 30.2 °F 93% 29.92 in 1.4 mi SSE 12.7 mph - N/A Snow Light Snow
4:00 PM 31 °F - 30 °F 93% 29.92 in 1 mi SSE 11.2 mph - - Snow Snow Showers
4:25 PM 30.2 °F 20.8 °F 30.2 °F 100% 29.92 in 1.1 mi SSE 11.5 mph - N/A Snow Light Snow
4:38 PM 30.2 °F 20.8 °F 30.2 °F 100% 29.92 in 0.9 mi SSE 11.5 mph - N/A Snow Light Snow
4:42 PM 30.2 °F 20.8 °F 30.2 °F 100% 29.92 in 1.1 mi SSE 11.5 mph - N/A Snow Light Snow
4:55 PM 30.2 °F 20.8 °F 30.2 °F 100% 29.89 in 1.4 mi SSE 11.5 mph - N/A Snow Light Snow
4:57 PM 30.2 °F 20.8 °F 30.2 °F 100% 29.89 in 1.4 mi SSE 11.5 mph - N/A Snow Light Snow
5:01 PM 32.0 °F 23.0 °F 30.2 °F 93% 29.89 in 1.4 mi SSE 11.5 mph - N/A Snow Light Snow
5:04 PM 32.0 °F 23.0 °F 30.2 °F 93% 29.89 in 1.4 mi SSE 11.5 mph - N/A Snow Light Snow
5:25 PM 32.0 °F 23.6 °F 32.0 °F 100% 29.89 in 1.7 mi SSE 10.4 mph - N/A Snow Light Snow
5:55 PM 32.0 °F 24.2 °F 32.0 °F 100% 29.89 in 1.4 mi SSE 9.2 mph - N/A   Overcast
6:13 PM 32.0 °F 24.8 °F 32.0 °F 100% 29.89 in 0.9 mi South 8.1 mph - N/A   Heavy Freezing Drizzle
6:17 PM 32.0 °F 24.8 °F 32.0 °F 100% 29.89 in 1.1 mi South 8.1 mph - N/A   Heavy Freezing Drizzle
6:25 PM 32.0 °F 24.8 °F 32.0 °F 100% 29.89 in 1.6 mi SSE 8.1 mph - N/A   Light Drizzle
6:33 PM 32.0 °F 24.2 °F 32.0 °F 100% 29.89 in 1.6 mi South 9.2 mph - N/A   Overcast
6:46 PM 32.0 °F 24.8 °F 32.0 °F 100% 29.89 in 1.3 mi South 8.1 mph - N/A   Overcast
6:55 PM 32.0 °F 24.2 °F 32.0 °F 100% 29.89 in 1.2 mi South 9.2 mph - N/A   Drizzle
7:00 PM 33 °F - 33 °F 97% 29.91 in 1 mi South 8.9 mph - - Rain Drizzle
7:25 PM 32.0 °F 24.8 °F 32.0 °F 100% 29.89 in 1.5 mi South 8.1 mph - N/A   Drizzle
7:55 PM 33.8 °F 27.0 °F 32.0 °F 93% 29.89 in 1.4 mi South 8.1 mph - N/A   Drizzle
8:00 PM 33.8 °F 26.4 °F 33.8 °F 100% 29.89 in 1.4 mi South 9.2 mph - N/A   Drizzle
8:25 PM 33.8 °F 26.4 °F 33.8 °F 100% 29.89 in 1.6 mi South 9.2 mph - N/A   Overcast
8:55 PM 33.8 °F 26.4 °F 33.8 °F 100% 29.89 in 1.6 mi South 9.2 mph - N/A   Overcast
9:25 PM 33.8 °F 27.0 °F 33.8 °F 100% 29.89 in 1.6 mi South 8.1 mph - N/A   Overcast
9:55 PM 33.8 °F 27.0 °F 33.8 °F 100% 29.92 in 1.7 mi South 8.1 mph - N/A   Overcast
10:00 PM 33 °F - 33 °F 100% 29.93 in 2 mi SSW 6.7 mph - - Rain Rain
10:25 PM 33.8 °F 28.6 °F 33.8 °F 100% 29.92 in 1.7 mi South 5.8 mph - N/A   Overcast
10:50 PM 33.8 °F 28.6 °F 33.8 °F 100% 29.92 in 1.6 mi South 5.8 mph - N/A   Overcast
10:55 PM 33.8 °F 28.6 °F 33.8 °F 100% 29.92 in 1.6 mi South 5.8 mph - N/A   Overcast
11:25 PM 33.8 °F 27.7 °F 33.8 °F 100% 29.92 in 1.6 mi SSW 6.9 mph - N/A   Overcast
11:55 PM 33.8 °F 27.7 °F 33.8 °F 100% 29.92 in 1.6 mi South 6.9 mph - N/A   Overcast